• Join FlightAware (Why Join?)
  • Login
  • US Flag 
04:59PM EST


 

Airport Tracker/Info


-or-


 

Live Flight TrackerFlight Track Log ✈ XOJ793 ✈ 03-Aug-2014 ✈ KHOU - KIAH

Flight Track Log - Related Links

Times and Time Zones

All times are in EDT time to prevent confusion due to time zone crossing. See the XOJ793 flight status page for this flight to view local times or setup timezone preferences in your user account.

Time Position Orientation Groundspeed Altitude Reporting Facility
EDT Latitude Longitude Course Direction KTS MPH feet Rate Location/Type
09:05PM 29.6308 -95.2633 325° Northwest 199 229 500  Level Houston Center
09:06PM 29.6719 -95.2967 325° Northwest 265 305 3,000 1,485 Climbing Houston Center
09:07PM 29.6792 -95.3119 299° West 260 299 3,000  Level Houston Center
09:07PM 29.7025 -95.3797 292° West 273 314 3,000  Level Houston Center
09:08PM 29.7083 -95.3914 300° West 265 305 3,000 98 Level Houston Center
09:08PM 29.7306 -95.4556 292° West 248 285 3,100 492 Climbing Houston Center
09:09PM 29.7439 -95.4808 301° West 261 300 3,500 1,869 Climbing Houston Center
09:09PM 29.7547 -95.5394 282° West 281 323 5,000 1,452 Climbing Houston Center
09:10PM 29.7619 -95.5656 288° West 270 311 5,000  Level Houston Center
09:10PM 29.7772 -95.6258 286° West 280 322 5,000  Level Houston Center
09:11PM 29.7883 -95.6472 301° West 279 321 5,000  Level Houston Center
09:11PM 29.8150 -95.6958 302° West 261 300 5,000  Level Houston Center
09:12PM 29.8292 -95.7164 308° West 266 306 5,000  Level Houston Center
09:13PM 29.8931 -95.7194 358° North 231 266 5,000  Level Houston Center
09:14PM 29.9428 -95.7172 North 203 234 5,000  Level Houston Center
09:14PM 29.9486 -95.7156 14° North 203 234 5,000 -655 Level Houston Center
09:15PM 29.9839 -95.6833 38° Northeast 193 222 4,400 -774 Descending Houston Center
09:15PM 29.9886 -95.6733 61° Northeast 195 224 4,200 -1,164 Descending Houston Center
09:16PM 29.9928 -95.6172 85° East 183 211 3,100 -1,082 Descending Houston Center
09:16PM 29.9947 -95.6142 54° Northeast 188 216 3,100 -109 Level Houston Center
09:17PM 29.9922 -95.5642 93° East 172 198 3,000 -97 Descending Houston Center
09:17PM 29.9919 -95.5589 93° East 177 204 3,000 -327 Level Houston Center
09:18PM 29.9922 -95.5161 90° East 169 194 2,700 -590 Descending Houston Center
09:18PM 29.9928 -95.4939 88° East 172 198 2,400 -806 Descending Houston Center
09:19PM 29.9933 -95.4603 89° East 148 170 1,800 -885 Descending Houston Center
09:19PM 29.9933 -95.4442 90° East 167 192 1,500 -873 Descending Houston Center
09:20PM 29.9939 -95.4192 89° East 142 163 1,000 -677 Descending Houston Center
09:20PM 29.9936 -95.4000 91° East 153 176 800 -590 Descending Houston Center
09:21PM 29.9942 -95.3758 88° East 133 153 400 -393 Descending Houston Center
09:21PM 29.9917 -95.3561 98° East 141 162 400  Level Houston Center